Date String (YYYY-MM-DD hh:mm:ss) UTC,Instrument flags,Ambient pressure (hPa),Sample flow (lpm),Bypass flow (lpm),Sample temperature (°C),Ambient temperature (°C),ASC tube jacket temperature (°C),LED temperature (°C),Box temperature (°C),Sample RH (%),Span deviation,Mass concentration (μg/m³),Mass concentration (μg/m³),Mass concentration (μg/m³)
DateTimeUTC,F1_M11,P_M11,Q1_M11,Q2_M11,T1_M11,T2_M11,T3_M11,T4_M11,T5_M11,U1_M11,ZSPAN_M11,X2_M11,X0_M11,X1_M11
2023-05-08 00:00:00,,0828.1,5.00,0.00,30.8,29.5,00.0,39.1,32.4,15.1,0000.0,0004.02,0009.51,0003.17
2023-05-08 00:01:00,,0828.1,4.99,0.00,30.8,29.5,00.0,39.2,32.4,14.7,0000.0,0004.09,0009.93,0003.18
2023-05-08 00:02:00,,0828.1,5.00,0.00,30.8,29.5,00.0,39.2,32.4,14.5,0000.0,0004.10,0011.02,0003.17
2023-05-08 00:03:00,,0828.1,5.00,0.00,30.9,29.6,00.0,39.2,32.4,14.7,0000.0,0004.07,0011.31,0003.15
2023-05-08 00:04:00,,0828.0,5.00,0.00,30.9,29.6,00.0,39.2,32.4,15.0,0000.0,0003.95,0011.16,0003.11
2023-05-08 00:05:00,,0828.1,5.00,0.00,30.9,29.6,00.0,39.2,32.4,15.1,0000.0,0003.92,0011.23,0003.05
2023-05-08 00:06:00,,0828.1,5.00,0.00,30.9,29.6,00.0,39.2,32.4,14.4,0000.0,0003.90,0010.57,0003.03
2023-05-08 00:07:00,,0828.0,5.00,0.00,30.9,29.6,00.0,39.2,32.4,14.4,0000.0,0003.89,0010.31,0003.00
2023-05-08 00:08:00,,0828.1,4.99,0.00,30.9,29.6,00.0,39.2,32.5,14.4,0000.0,0003.91,0010.09,0003.02
2023-05-08 00:09:00,,0828.1,5.00,0.00,30.9,29.6,00.0,39.2,32.4,14.3,0000.0,0003.94,0010.55,0003.08
2023-05-08 00:10:00,,0828.1,5.00,0.00,30.9,29.6,00.0,39.3,32.5,14.1,0000.0,0004.03,0010.97,0003.14
2023-05-08 00:11:00,,0828.1,5.00,0.00,30.9,29.6,00.0,39.3,32.5,14.3,0000.0,0004.10,0011.12,0003.18
2023-05-08 00:12:00,,0828.1,5.00,0.00,31.0,29.6,00.0,39.3,32.5,14.3,0000.0,0004.14,0010.97,0003.22
2023-05-08 00:13:00,,0828.0,5.00,0.00,31.0,29.6,00.0,39.3,32.5,14.2,0000.0,0004.15,0010.31,0003.27
2023-05-08 00:14:00,,0828.1,5.00,0.00,31.0,29.6,00.0,39.3,32.5,14.3,0000.0,0004.18,0009.72,0003.29
2023-05-08 00:15:00,,0828.0,5.00,0.00,31.0,29.6,00.0,39.3,32.5,14.5,0000.0,0004.20,0009.65,0003.32
2023-05-08 00:16:00,,0828.0,5.00,0.00,31.0,29.6,00.0,39.3,32.5,14.3,0000.0,0004.19,0009.88,0003.34
2023-05-08 00:17:00,,0828.0,5.00,0.00,31.0,29.6,00.0,39.3,32.5,14.4,0000.0,0004.19,0010.33,0003.35
2023-05-08 00:18:00,,0828.0,5.00,0.00,31.0,29.6,00.0,39.3,32.5,14.7,0000.0,0004.18,0010.38,0003.34
2023-05-08 00:19:00,,0828.0,5.01,0.00,31.0,29.6,00.0,39.4,32.5,14.7,0000.0,0004.17,0010.40,0003.32
2023-05-08 00:20:00,,0828.1,5.01,0.00,31.0,29.6,00.0,39.4,32.5,14.3,0000.0,0004.15,0010.00,0003.31
2023-05-08 00:21:00,,0828.1,5.00,0.00,31.0,29.6,00.0,39.4,32.5,14.2,0000.0,0004.11,0009.54,0003.30
2023-05-08 00:22:00,,0828.1,4.99,0.00,31.0,29.3,00.0,39.4,32.5,14.7,0000.0,0004.02,0009.32,0003.27
2023-05-08 00:23:00,,0828.0,4.99,0.00,31.0,27.4,00.0,39.3,32.2,14.8,0000.0,0003.97,0009.18,0003.24
2023-05-08 00:24:00,,0827.9,5.02,0.00,30.9,26.4,00.0,39.2,32.0,15.1,0000.0,0003.94,0009.13,0003.19
2023-05-08 00:25:00,,0827.9,5.00,0.00,30.8,26.5,00.0,39.1,31.9,15.1,0000.0,0003.86,0008.70,0003.14
2023-05-08 00:26:00,,0827.9,5.00,0.00,30.7,26.8,00.0,39.1,31.9,15.1,0000.0,0003.83,0008.61,0003.10
2023-05-08 00:27:00,,0828.0,5.00,0.00,30.6,27.2,00.0,39.1,31.9,15.1,0000.0,0003.82,0008.20,0003.08
2023-05-08 00:28:00,,0828.0,5.00,0.00,30.6,27.5,00.0,39.1,32.0,15.0,0000.0,0003.80,0007.68,0003.04
2023-05-08 00:29:00,,0828.0,4.99,0.00,30.6,27.9,00.0,39.1,32.0,15.5,0000.0,0003.77,0007.90,0003.00
2023-05-08 00:30:00,,0828.0,5.00,0.00,30.6,28.2,00.0,39.1,32.1,15.6,0000.0,0003.77,0008.21,0002.99
2023-05-08 00:31:00,,0828.0,5.01,0.00,30.6,28.4,00.0,39.1,32.1,15.7,0000.0,0003.77,0008.17,0002.96
2023-05-08 00:32:00,,0828.1,4.99,0.00,30.6,28.6,00.0,39.1,32.1,15.7,0000.0,0003.78,0008.47,0002.93
2023-05-08 00:33:00,,0828.1,5.00,0.00,30.6,28.7,00.0,39.0,32.1,15.2,0000.0,0003.83,0009.22,0002.93
2023-05-08 00:34:00,,0828.1,5.01,0.00,30.6,28.9,00.0,39.0,32.1,14.9,0000.0,0003.85,0009.17,0002.97
2023-05-08 00:35:00,,0828.1,5.00,0.00,30.6,29.0,00.0,39.1,32.2,14.9,0000.0,0003.85,0009.04,0003.05
2023-05-08 00:36:00,,0828.1,5.00,0.00,30.6,29.1,00.0,39.1,32.2,14.9,0000.0,0003.92,0009.03,0003.13
2023-05-08 00:37:00,,0828.1,5.01,0.00,30.7,29.1,00.0,39.1,32.2,15.0,0000.0,0003.99,0009.69,0003.19
2023-05-08 00:38:00,,0828.0,5.00,0.00,30.7,29.2,00.0,39.1,32.2,15.0,0000.0,0004.03,0010.08,0003.25
2023-05-08 00:39:00,,0827.9,4.99,0.00,30.7,29.2,00.0,39.1,32.2,15.1,0000.0,0004.05,0010.05,0003.28
2023-05-08 00:40:00,,0827.9,5.00,0.00,30.7,29.2,00.0,39.1,32.3,15.1,0000.0,0004.08,0009.88,0003.32
2023-05-08 00:41:00,,0827.9,5.00,0.00,30.7,29.3,00.0,39.1,32.3,15.2,0000.0,0004.11,0009.41,0003.35
2023-05-08 00:42:00,,0827.9,5.01,0.00,30.7,29.3,00.0,39.1,32.3,15.2,0000.0,0004.15,0009.89,0003.40
2023-05-08 00:43:00,,0827.9,5.01,0.00,30.7,29.3,00.0,39.1,32.3,15.1,0000.0,0004.15,0009.73,0003.43
2023-05-08 00:44:00,,0827.9,5.00,0.00,30.7,29.3,00.0,39.1,32.2,14.8,0000.0,0004.17,0009.13,0003.48
2023-05-08 00:45:00,,0827.9,4.99,0.00,30.7,29.3,00.0,39.1,32.2,14.7,0000.0,0004.19,0010.07,0003.50
2023-05-08 00:46:00,,0828.0,5.00,0.00,30.7,29.3,00.0,39.1,32.3,15.0,0000.0,0004.25,0011.35,0003.52
2023-05-08 00:47:00,,0827.9,5.00,0.00,30.7,29.3,00.0,39.1,32.3,15.1,0000.0,0004.28,0011.48,0003.51
2023-05-08 00:48:00,,0827.9,5.00,0.00,30.7,29.3,00.0,39.1,32.3,14.8,0000.0,0004.23,0011.20,0003.49
2023-05-08 00:49:00,,0828.0,5.00,0.00,30.8,29.4,00.0,39.1,32.3,14.9,0000.0,0004.23,0010.70,0003.48
2023-05-08 00:50:00,,0828.0,5.00,0.00,30.7,29.3,00.0,39.1,32.2,14.7,0000.0,0004.23,0010.82,0003.48
2023-05-08 00:51:00,,0828.0,4.99,0.00,30.7,29.3,00.0,39.1,32.2,14.7,0000.0,0004.21,0011.05,0003.49
2023-05-08 00:52:00,,0828.0,5.00,0.00,30.7,29.3,00.0,39.1,32.3,14.8,0000.0,0004.20,0011.01,0003.51
2023-05-08 00:53:00,,0828.1,5.00,0.00,30.8,29.3,00.0,39.2,32.3,14.8,0000.0,0004.22,0010.88,0003.52
2023-05-08 00:54:00,,0828.1,5.01,0.00,30.8,29.3,00.0,39.2,32.3,14.8,0000.0,0004.32,0011.40,0003.54
2023-05-08 00:55:00,,0828.1,5.00,0.00,30.8,29.4,00.0,39.2,32.3,14.9,0000.0,0004.35,0011.90,0003.55
2023-05-08 00:56:00,,0828.2,4.99,0.00,30.8,29.4,00.0,39.2,32.3,15.0,0000.0,0004.36,0010.83,0003.56
2023-05-08 00:57:00,,0828.2,4.99,0.00,30.8,29.4,00.0,39.2,32.3,15.1,0000.0,0004.36,0010.20,0003.56
2023-05-08 00:58:00,,0828.2,4.99,0.00,30.8,29.4,00.0,39.2,32.3,14.8,0000.0,0004.34,0010.80,0003.57
2023-05-08 00:59:00,,0828.2,5.01,0.00,30.8,29.4,00.0,39.2,32.3,14.9,0000.0,0004.38,0010.94,0003.58
